Hourly Data Report for November 05, 2018

TORONTO CITY
ONTARIO
Current Station Operator: ECCC - MSC

43°40'00.000" N
79°24'00.000" W
112.50 m
6158355
71508
XTO

Download Data

Hourly Data (November 2018)
Hourly Data Report for November 5, 2018
TIME
LST
Temp Definition
°C
Dew Point Definition
°C
Rel Hum Definition
%
Precip. Amount Definition
mm

Wind Dir Definition
10's deg

Wind Spd Definition
km/h
Visibility Definition
km
Stn Press Definition
kPa
Hmdx Definition


Wind Chill Definition


Weather Definition


00:00 7.5 3.1 74 0.0 LegendMM LegendMM   100.91     LegendNANA
01:00 7.4 3.1 74 0.0 LegendMM LegendMM   100.80     LegendNANA
02:00 7.4 3.3 75 0.0 LegendMM LegendMM   100.84     LegendNANA
03:00 7.5 3.1 74 0.0 LegendMM LegendMM   100.76     LegendNANA
04:00 7.8 3.2 72 0.0 LegendMM LegendMM   100.66     LegendNANA
05:00 7.3 4.1 80 0.0 LegendMM LegendMM   100.65     LegendNANA
06:00 7.4 4.5 82 0.2 LegendMM LegendMM   100.60     LegendNANA
07:00 7.9 4.3 78 0.0 LegendMM LegendMM   100.56     LegendNANA
08:00 8.1 4.7 79 0.3 LegendMM LegendMM   100.53     LegendNANA
09:00 8.1 5.9 86 0.0 LegendMM LegendMM   100.52     LegendNANA
10:00
11:00
12:00 10.0 7.9 87 0.0 LegendMM LegendMM   100.42     LegendNANA
13:00 10.8 8.0 83 0.0 LegendMM LegendMM   100.39     LegendNANA
14:00 11.1 7.9 81 0.0 LegendMM LegendMM   100.34     LegendNANA
15:00 10.9 8.8 87 0.0 LegendMM LegendMM   100.32     LegendNANA
16:00 11.7 9.0 83 0.0 LegendMM LegendMM   100.28     LegendNANA
17:00 11.3 8.5 83 0.0 LegendMM LegendMM   100.26     LegendNANA
18:00 11.4 8.5 82 0.0 LegendMM LegendMM   100.20     LegendNANA
19:00 11.2 8.4 83 0.0 LegendMM LegendMM   100.18     LegendNANA
20:00 11.2 8.6 84 0.3 LegendMM LegendMM   100.15     LegendNANA
21:00 11.1 8.2 82 0.0 LegendMM LegendMM   100.09     LegendNANA
22:00 10.9 8.0 83 0.0 LegendMM LegendMM   100.09     LegendNANA
23:00 11.0 7.9 81 0.0 LegendMM LegendMM   100.00     LegendNANA

Notes on Data Quality.

Legend

  • E = Estimated
  • M = Missing
  • NA = Not Available*
  • [empty] = Indicates an unobserved value
Date modified: